GALAXY 32 (G-32)

Last updated on Mon Nov 03 2025 00:03:00 GMT+0000 (Coordinated Universal Time)

1 54244U 22153B 25305.87793990 -.00000163 00000+0 00000+0 0 9998 2 54244 0.0151 290.8120 0001675 356.0728 339.6168 1.00270537 10866
UTC large
Height (km)
Speed (km/s)
/
Latitude / Longitude
Inclination (degrees)
Orbital Period (minutes)
Azimuth
Elevation
Range (km)
Doppler Factor

Next 0 passes for location: London (51.5072 / 0.1276)

Sorry there are no passes over London.